Location: Warwick
(41.7000°N, 71.4170°W)
Time: 14:50:59
(UTC-04:00)

Amateur Radio Satellites - All Passes

Search period start: 17 October 2017 14:20
Search period end: 18 October 2017 14:20
Location: Warwick, 41.7000°N, 71.4170°W

Satellite Date Start Highest point End Downlink Frequencies (MHz)
Time Altitude Azimuth
Oscar 19 17 Oct 14:29:45 14:33:59 25° 266° (W) 14:38:12 437.125/150
Gurwin Techsat 1B 17 Oct 14:33:04 14:37:51 34° 263° (W) 14:42:41 435.225
DX 1 17 Oct 14:38:51 14:43:14 77° 285° (WNW) 14:47:36 434.975-435.025
SPROUT 17 Oct 14:41:15 14:43:20 13° 297° (WNW) 14:45:25 437.525
SO-50 17 Oct 14:44:14 14:46:05 12° 35° (NE) 14:47:55 436.795
nSIGHT-1 17 Oct 14:51:42 14:53:29 14° 2° (N) 14:55:17 .
ITAMSAT 1 17 Oct 14:54:03 14:58:49 38° 68° (ENE) 15:03:36 435.822/435.867
AO-85 17 Oct 14:55:18 14:58:59 41° 308° (NW) 15:02:47 145.980
ITUPSAT 1 17 Oct 14:57:15 14:59:34 13° 90° (E) 15:01:53 437.325
VELOX 1 17 Oct 14:59:36 15:01:48 14° 298° (WNW) 15:04:01 145.980
MOZHAYETS 4 17 Oct 14:59:56 15:02:49 16° 92° (E) 15:05:40
UKube-1 17 Oct 15:10:17 15:14:30 55° 287° (WNW) 15:18:43 .
BEESAT 17 Oct 15:14:05 15:17:39 21° 93° (E) 15:21:13 436.000
ISS 17 Oct 15:15:53 15:17:54 15° 6° (N) 15:19:55 437.550
AO-7 17 Oct 15:18:00 15:26:19 90° 244° (WSW) 15:34:40 .
BEESAT 2 17 Oct 15:31:33 15:34:06 16° 318° (NW) 15:36:40 435.950
Tancredo 1 17 Oct 15:39:42 15:41:30 66° 35° (NE) 15:43:17 437.200
SO-50 17 Oct 16:22:48 16:27:24 66° 55° (NE) 16:32:02 436.795
nSIGHT-1 17 Oct 16:27:49 16:30:35 26° 23° (NNE) 16:33:21 .
ITUPSAT 1 17 Oct 16:33:03 16:37:50 65° 287° (WNW) 16:42:33 437.325
ITAMSAT 1 17 Oct 16:34:02 16:38:21 27° 265° (W) 16:42:42 435.822/435.867
MOZHAYETS 4 17 Oct 16:35:48 16:40:14 49° 288° (WNW) 16:44:37
CUBESAT XI-V 17 Oct 16:38:00 16:42:18 38° 97° (E) 16:46:34 437.345
CUTE-I 17 Oct 16:41:38 16:44:11 14° 58° (ENE) 16:46:45 437.470
BEESAT 17 Oct 16:51:05 16:55:36 42° 290° (WNW) 17:00:04 436.000
KKS-1 17 Oct 16:51:39 16:54:13 15° 92° (E) 16:56:46 437.445
ISS 17 Oct 16:52:04 16:55:06 34° 26° (NNE) 16:58:08 437.550
HO-68 17 Oct 16:52:58 16:55:32 12° 49° (NE) 16:58:07 435.675
DOVE 4 17 Oct 17:03:25 17:07:33 76° 77° (ENE) 17:11:50 437.250
AO-7 17 Oct 17:14:47 17:20:05 18° 269° (W) 17:25:23 .
LilacSat-2 17 Oct 17:27:40 17:31:08 33° 71° (ENE) 17:34:35 437.200
XW-2F 17 Oct 17:29:45 17:33:04 30° 71° (ENE) 17:36:24 145.980 - 146.000
STARS 17 Oct 17:33:38 17:36:31 17° 93° (E) 17:39:23 437.465
KAITUO 1B 17 Oct 17:33:56 17:37:05 26° 70° (ENE) 17:40:14 145.475/437.950
XW-2D 17 Oct 17:39:06 17:42:44 43° 73° (ENE) 17:46:21 145.860 - 145.880
PCSat 17 Oct 17:43:27 17:48:38 44° 54° (NE) 17:53:47 145.827
XW-2B 17 Oct 17:52:16 17:56:02 61° 75° (ENE) 17:59:48 145.730 - 145.750
NUDT-PHONESAT 17 Oct 17:53:14 17:56:46 42° 73° (ENE) 18:00:19 437.300
CUTE 1.7 + AOD 2 17 Oct 17:53:36 17:55:55 15° 64° (ENE) 17:58:15 437.475
nSIGHT-1 17 Oct 18:03:54 18:07:00 48° 220° (SW) 18:10:06 .
SO-50 17 Oct 18:04:51 18:07:20 14° 251° (WSW) 18:09:50 436.795
SEEDS 17 Oct 18:07:45 18:09:33 13° 63° (ENE) 18:11:22 437.485
XW-2C 17 Oct 18:15:18 18:19:05 66° 259° (W) 18:22:53 145.795 - 145.815
CUBESAT XI-V 17 Oct 18:15:55 18:19:26 22° 294° (WNW) 18:22:56 437.345
CUTE-I 17 Oct 18:18:10 18:23:28 86° 256° (WSW) 18:28:50 437.470
CUBEBUG 2 17 Oct 18:19:00 18:22:10 18° 64° (ENE) 18:25:23 437.445
KKS-1 17 Oct 18:26:41 18:31:03 52° 288° (WNW) 18:35:24 437.445
ISS 17 Oct 18:28:35 18:31:33 32° 223° (SW) 18:34:31 437.550
HO-68 17 Oct 18:34:49 18:41:48 60° 69° (ENE) 18:48:51 435.675
AAUSAT CUBESAT 2 17 Oct 18:41:34 18:43:25 13° 64° (ENE) 18:45:16 437.432
XW-2A 17 Oct 18:45:40 18:47:49 16° 68° (ENE) 18:49:57 145.665 - 145.685
ZACube-1 17 Oct 18:50:30 18:52:19 12° 61° (ENE) 18:54:08 437.345
LilacSat-2 17 Oct 19:02:54 19:05:29 17° 267° (W) 19:08:03 437.200
UWE-3 17 Oct 19:03:01 19:06:59 29° 68° (ENE) 19:11:01 435.000/436.395/437.385
XW-2F 17 Oct 19:04:33 19:07:13 18° 266° (W) 19:09:53 145.980 - 146.000
KAITUO 1B 17 Oct 19:08:11 19:11:02 20° 266° (W) 19:13:52 145.475/437.950
STARS 17 Oct 19:08:49 19:13:03 45° 289° (WNW) 19:17:17 437.465
YUBILEINY 17 Oct 19:12:50 19:18:18 17° 60° (ENE) 19:23:44 435.215
XW-2D 17 Oct 19:15:19 19:17:06 13° 269° (W) 19:18:53 145.860 - 145.880
STRAND 1 17 Oct 19:25:07 19:29:20 25° 94° (E) 19:33:30 437.568
CUTE 1.7 + AOD 2 17 Oct 19:27:11 19:31:19 52° 261° (W) 19:35:28 437.475
PCSat 17 Oct 19:27:17 19:31:47 27° 252° (WSW) 19:36:15 145.827
NUDT-PHONESAT 17 Oct 19:29:13 19:30:50 12° 269° (W) 19:32:27 437.300
Oscar 11 17 Oct 19:31:43 19:34:44 19° 66° (ENE) 19:37:45 .
SEEDS 17 Oct 19:40:36 19:44:44 60° 260° (W) 19:48:52 437.485
CUBEBUG 2 17 Oct 19:53:52 19:58:21 50° 261° (W) 20:02:58 437.445
AO-73 17 Oct 20:03:23 20:07:52 59° 74° (ENE) 20:12:22 145.935
AAUSAT CUBESAT 2 17 Oct 20:14:21 20:18:23 56° 260° (W) 20:22:26 437.432
FO-29 17 Oct 20:16:42 20:21:18 18° 91° (E) 20:26:08 435.910
XW-2A 17 Oct 20:17:17 20:20:17 28° 263° (W) 20:23:18 145.665 - 145.685
ZACube-1 17 Oct 20:23:22 20:27:56 76° 258° (WSW) 20:32:33 437.345
HO-68 17 Oct 20:24:09 20:29:56 26° 266° (W) 20:35:46 435.675
DELFI C3 17 Oct 20:37:56 20:40:44 19° 67° (ENE) 20:43:32 145.870
Max Valier Satellite 17 Oct 20:38:17 20:40:08 13° 65° (ENE) 20:41:58 145.860
UWE-3 17 Oct 20:39:20 20:43:21 29° 265° (W) 20:47:25 435.000/436.395/437.385
O/OREOS (USA 219) 17 Oct 20:42:15 20:46:05 27° 103° (ESE) 20:49:57 437.305
BEESAT 3 17 Oct 20:56:31 20:59:47 24° 46° (NE) 21:03:00 437.485
STRAND 1 17 Oct 21:03:48 21:08:37 40° 291° (WNW) 21:13:24 437.568
Oscar 11 17 Oct 21:06:28 21:10:34 41° 262° (W) 21:14:41 .
YUBILEINY 17 Oct 21:07:44 21:16:35 82° 81° (E) 21:25:25 435.215
UNISAT 6 17 Oct 21:24:56 21:26:56 13° 89° (E) 21:28:54 437.425
TIGRISAT 17 Oct 21:39:47 21:42:48 17° 91° (E) 21:45:44 435.000
AO-73 17 Oct 21:42:07 21:44:26 14° 270° (W) 21:46:47 145.935
AO-85 17 Oct 21:45:19 21:48:52 22° 45° (NE) 21:52:36 145.980
FO-29 17 Oct 22:00:03 22:06:48 83° 286° (WNW) 22:14:20 435.910
EO-88 17 Oct 22:07:11 22:10:49 66° 259° (W) 22:14:28 145.990 - 145.960
BEESAT 2 17 Oct 22:09:22 22:13:12 39° 51° (NE) 22:16:58 435.950
Max Valier Satellite 17 Oct 22:09:59 22:13:34 43° 261° (W) 22:17:09 145.860
DELFI C3 17 Oct 22:11:47 22:15:16 31° 263° (W) 22:18:46 145.870
O/OREOS (USA 219) 17 Oct 22:21:21 22:25:23 30° 301° (WNW) 22:29:28 437.305
BEESAT 3 17 Oct 22:33:48 22:37:23 33° 245° (WSW) 22:40:53 437.485
ESTCUBE 1 17 Oct 22:39:52 22:43:43 29° 68° (ENE) 22:47:34 437.505/2401.250
UNISAT 6 17 Oct 22:59:28 23:04:05 65° 286° (WNW) 23:08:34 437.425
YUBILEINY 17 Oct 23:06:18 23:12:16 21° 282° (WNW) 23:18:15 435.215
LO-87 17 Oct 23:06:34 23:10:09 79° 77° (ENE) 23:13:46 145.935 - 145.965
TIGRISAT 17 Oct 23:15:16 23:19:44 48° 288° (WNW) 23:24:06 435.000
QB50P2 17 Oct 23:24:32 23:25:03 10° 89° (E) 23:25:34 145.880/145.840
PRISM 17 Oct 23:24:54 23:29:01 75° 285° (WNW) 23:33:08 437.425
AO-85 17 Oct 23:25:02 23:29:30 52° 241° (WSW) 23:34:17 145.980
DUCHIFAT 1 17 Oct 23:42:30 23:43:59 12° 90° (E) 23:45:28 145.980
FO-29 17 Oct 23:47:06 23:51:03 17° 302° (WNW) 23:55:14 435.910
BEESAT 2 17 Oct 23:47:46 23:50:39 19° 249° (WSW) 23:53:30 435.950
SPROUT 17 Oct 23:56:48 00:00:52 45° 72° (ENE) 00:04:58 437.525
ESTCUBE 1 18 Oct 00:16:37 00:20:27 27° 264° (W) 00:24:18 437.505/2401.250
VELOX 1 18 Oct 00:18:34 00:22:51 55° 73° (ENE) 00:27:09 145.980
AIST 2D 18 Oct 00:22:15 00:25:38 52° 285° (WNW) 00:29:00 435.315
UKube-1 18 Oct 00:31:18 00:33:11 13° 62° (ENE) 00:35:05 .
EO-79 18 Oct 00:33:06 00:37:19 57° 101° (E) 00:41:30 145.935-145.965
50 SAT 18 Oct 00:33:24 00:35:42 18° 68° (ENE) 00:38:01 437.505
RS-15 18 Oct 00:33:41 00:45:07 48° 109° (ESE) 00:56:34 29.354- 29.394
POLYITAN 1 18 Oct 00:36:58 00:41:13 63° 101° (ESE) 00:45:25 437.675
QB50P2 18 Oct 00:57:01 01:01:17 69° 285° (WNW) 01:05:30 145.880/145.840
Oscar 19 18 Oct 01:02:43 01:05:03 13° 90° (E) 01:07:24 437.125/150
NANOSAT C BR1 18 Oct 01:03:20 01:07:35 73° 285° (WNW) 01:11:48 145.865
Gurwin Techsat 1B 18 Oct 01:11:38 01:13:00 11° 88° (E) 01:14:22 435.225
DUCHIFAT 1 18 Oct 01:15:49 01:20:02 60° 286° (WNW) 01:24:10 145.980
DX 1 18 Oct 01:34:09 01:38:28 87° 263° (W) 01:42:49 434.975-435.025
SPROUT 18 Oct 01:34:22 01:36:59 16° 268° (W) 01:39:36 437.525
BUGSAT 1 18 Oct 01:35:10 01:39:20 55° 100° (E) 01:43:27 437.445
VELOX 1 18 Oct 01:57:29 01:59:37 13° 269° (W) 02:01:46 145.980
MOZHAYETS 4 18 Oct 02:02:07 02:05:10 18° 64° (ENE) 02:08:12
ITUPSAT 1 18 Oct 02:03:55 02:07:05 18° 63° (ENE) 02:10:16 437.325
UKube-1 18 Oct 02:04:24 02:08:39 64° 258° (WSW) 02:12:56 .
50 SAT 18 Oct 02:05:18 02:07:53 22° 264° (W) 02:10:30 437.505
EO-79 18 Oct 02:10:25 02:12:35 14° 297° (WNW) 02:14:43 145.935-145.965
POLYITAN 1 18 Oct 02:14:36 02:16:26 13° 298° (WNW) 02:18:16 437.675
BEESAT 18 Oct 02:20:31 02:24:26 26° 66° (ENE) 02:28:21 436.000
Oscar 19 18 Oct 02:39:47 02:44:55 74° 286° (WNW) 02:50:00 437.125/150
RS-15 18 Oct 02:45:22 02:57:27 58° 312° (NW) 03:09:32 29.354- 29.394
Gurwin Techsat 1B 18 Oct 02:48:16 02:53:37 89° 288° (WNW) 02:58:57 435.225
M-CUBED/EXP-1 PRIME 18 Oct 02:50:40 02:54:07 60° 290° (WNW) 02:57:47 437.505
ITAMSAT 1 18 Oct 03:08:23 03:10:37 13° 89° (E) 03:12:50 435.822/435.867
NO-84 18 Oct 03:10:43 03:13:48 19° 125° (SE) 03:16:52 435.350 FM
BUGSAT 1 18 Oct 03:12:01 03:14:12 14° 297° (WNW) 03:16:23 437.445
AO-7 18 Oct 03:20:00 03:27:01 29° 96° (E) 03:33:58 .
MOZHAYETS 4 18 Oct 03:37:23 03:41:54 51° 260° (W) 03:46:26
ITUPSAT 1 18 Oct 03:39:46 03:44:28 54° 260° (W) 03:49:12 437.325
CUBESAT XI-V 18 Oct 03:41:16 03:45:33 38° 71° (ENE) 03:49:50 437.345
KKS-1 18 Oct 03:50:15 03:52:48 15° 62° (ENE) 03:55:20 437.445
BEESAT 18 Oct 03:57:39 04:02:01 35° 262° (W) 04:06:26 436.000
Gurwin Techsat 1B 18 Oct 04:30:30 04:32:46 13° 302° (WNW) 04:35:01 435.225
STARS 18 Oct 04:30:44 04:33:27 16° 63° (ENE) 04:36:12 437.465
ITAMSAT 1 18 Oct 04:45:23 04:50:39 79° 285° (WNW) 04:55:53 435.822/435.867
NO-84 18 Oct 04:46:37 04:50:53 65° 321° (NW) 04:55:04 435.350 FM
DOVE 4 18 Oct 05:01:32 05:05:25 23° 94° (E) 05:09:25 437.250
RS-15 18 Oct 05:03:36 05:13:25 26° 343° (NNW) 05:23:05 29.354- 29.394
AO-7 18 Oct 05:12:04 05:20:13 63° 294° (WNW) 05:28:22 .
CUBESAT XI-V 18 Oct 05:19:30 05:23:02 21° 267° (W) 05:26:34 437.345
KKS-1 18 Oct 05:24:32 05:28:53 55° 260° (W) 05:33:16 437.445
XW-2C 18 Oct 05:49:17 05:50:46 12° 91° (E) 05:52:14 145.795 - 145.815
STARS 18 Oct 06:05:09 06:09:23 49° 260° (W) 06:13:41 437.465
NO-84 18 Oct 06:25:57 06:28:57 18° 340° (NNW) 06:31:52 435.350 FM
ITAMSAT 1 18 Oct 06:27:51 06:29:13 11° 303° (WNW) 06:30:36 435.822/435.867
LilacSat-2 18 Oct 06:34:17 06:37:56 46° 99° (E) 06:41:33 437.200
XW-2F 18 Oct 06:34:57 06:38:30 40° 99° (E) 06:42:00 145.980 - 146.000
CUTE-I 18 Oct 06:35:06 06:40:04 37° 97° (E) 06:45:01 437.470
KAITUO 1B 18 Oct 06:37:57 06:41:20 34° 97° (E) 06:44:42 145.475/437.950
SO-50 18 Oct 06:38:30 06:41:39 19° 111° (ESE) 06:44:48 436.795
DOVE 4 18 Oct 06:38:33 06:43:11 43° 288° (WNW) 06:48:01 437.250
STRAND 1 18 Oct 06:41:01 06:45:40 36° 68° (ENE) 06:50:21 437.568
XW-2D 18 Oct 06:45:02 06:48:45 62° 100° (E) 06:52:27 145.860 - 145.880
O/OREOS (USA 219) 18 Oct 06:51:14 06:55:47 55° 64° (ENE) 07:00:16 437.305
NUDT-PHONESAT 18 Oct 06:56:31 07:00:08 57° 100° (E) 07:03:43 437.300
XW-2B 18 Oct 06:58:22 07:02:08 89° 94° (E) 07:05:52 145.730 - 145.750
AO-7 18 Oct 07:07:09 07:11:22 15° 315° (NW) 07:15:35 .
CUTE 1.7 + AOD 2 18 Oct 07:12:00 07:15:29 25° 95° (E) 07:18:57 437.475
XW-2C 18 Oct 07:21:37 07:25:11 44° 287° (WNW) 07:28:44 145.795 - 145.815
RS-15 18 Oct 07:21:39 07:31:29 27° 19° (NNE) 07:40:57 29.354- 29.394
SEEDS 18 Oct 07:24:33 07:27:45 21° 94° (E) 07:30:55 437.485
XW-2A 18 Oct 07:39:09 07:41:06 15° 93° (E) 07:43:02 145.665 - 145.685
CUBEBUG 2 18 Oct 07:44:33 07:48:51 35° 96° (E) 07:53:00 437.445
HO-68 18 Oct 07:49:35 07:56:45 62° 102° (ESE) 08:03:51 435.675
AO-73 18 Oct 07:53:53 07:54:54 11° 88° (E) 07:55:55 145.935
AAUSAT CUBESAT 2 18 Oct 07:56:32 07:59:40 21° 94° (E) 08:02:49 437.432
NO-84 18 Oct 08:06:03 08:07:42 12° 1° (N) 08:09:17 435.350 FM
LilacSat-2 18 Oct 08:10:07 08:11:47 13° 295° (WNW) 08:13:26 437.200
XW-2F 18 Oct 08:10:17 08:12:14 14° 295° (WNW) 08:14:11 145.980 - 146.000
ZACube-1 18 Oct 08:12:21 08:15:39 20° 93° (E) 08:18:53 437.345
KAITUO 1B 18 Oct 08:12:46 08:15:03 16° 293° (WNW) 08:17:18 145.475/437.950
FO-29 18 Oct 08:13:55 08:18:44 40° 68° (ENE) 08:23:51 435.910
CUTE-I 18 Oct 08:15:23 08:19:57 29° 294° (WNW) 08:24:32 437.470
YUBILEINY 18 Oct 08:16:11 08:21:35 18° 77° (ENE) 08:27:00 435.215
SO-50 18 Oct 08:17:24 08:21:44 48° 308° (NW) 08:26:07 436.795
STRAND 1 18 Oct 08:20:32 08:24:52 27° 265° (W) 08:29:15 437.568
UNISAT 6 18 Oct 08:24:12 08:26:16 13° 61° (ENE) 08:28:20 437.425
PCSat 18 Oct 08:25:23 08:30:20 37° 111° (ESE) 08:35:18 145.827
UWE-3 18 Oct 08:28:02 08:32:32 58° 100° (E) 08:36:53 435.000/436.395/437.385
O/OREOS (USA 219) 18 Oct 08:32:08 08:34:40 15° 261° (W) 08:37:12 437.305
TIGRISAT 18 Oct 08:38:46 08:41:40 17° 63° (ENE) 08:44:36 435.000
CUTE 1.7 + AOD 2 18 Oct 08:47:43 08:51:15 27° 291° (WNW) 08:54:48 437.475
Oscar 11 18 Oct 08:53:14 08:57:11 34° 97° (E) 09:01:04 .
SEEDS 18 Oct 08:59:46 09:03:27 31° 290° (WNW) 09:07:09 437.485
XW-2A 18 Oct 09:10:57 09:13:52 28° 289° (WNW) 09:16:44 145.665 - 145.685
CUBEBUG 2 18 Oct 09:21:30 09:25:14 24° 293° (WNW) 09:28:54 437.445
AO-73 18 Oct 09:27:15 09:31:37 67° 285° (WNW) 09:35:51 145.935
AAUSAT CUBESAT 2 18 Oct 09:31:31 09:35:10 31° 289° (WNW) 09:38:47 437.432
RS-15 18 Oct 09:35:13 09:47:08 62° 49° (NE) 09:58:21 29.354- 29.394
HO-68 18 Oct 09:38:07 09:43:57 28° 301° (WNW) 09:49:47 435.675
Max Valier Satellite 18 Oct 09:40:25 09:42:42 16° 93° (E) 09:44:58 145.860
NO-84 18 Oct 09:43:25 09:46:22 20° 22° (NNE) 09:49:09 435.350 FM
DELFI C3 18 Oct 09:47:55 09:51:23 28° 96° (E) 09:54:51 145.870
ZACube-1 18 Oct 09:48:00 09:52:02 35° 290° (WNW) 09:55:57 437.345
UNISAT 6 18 Oct 09:57:42 10:02:18 74° 258° (WSW) 10:07:02 437.425
FO-29 18 Oct 09:59:56 10:04:05 24° 267° (W) 10:08:26 435.910
UWE-3 18 Oct 10:05:56 10:08:27 15° 297° (WNW) 10:10:55 435.000/436.395/437.385
YUBILEINY 18 Oct 10:08:25 10:17:07 88° 277° (W) 10:25:54 435.215
PCSat 18 Oct 10:08:51 10:13:44 33° 309° (NW) 10:18:39 145.827
TIGRISAT 18 Oct 10:13:20 10:17:52 55° 260° (W) 10:22:30 435.000
PRISM 18 Oct 10:13:50 10:17:52 77° 74° (ENE) 10:21:56 437.425
Oscar 11 18 Oct 10:29:49 10:33:05 21° 293° (WNW) 10:36:21 .
nSIGHT-1 18 Oct 10:41:41 10:44:41 39° 138° (SE) 10:47:41 .
AIST 2D 18 Oct 10:56:04 10:59:28 49° 74° (ENE) 11:02:53 435.315
ISS 18 Oct 11:08:02 11:11:15 64° 142° (SE) 11:14:29 437.550
EO-88 18 Oct 11:08:57 11:12:29 51° 286° (WNW) 11:15:59 145.990 - 145.960
Max Valier Satellite 18 Oct 11:13:17 11:16:37 32° 288° (WNW) 11:19:54 145.860
NO-84 18 Oct 11:20:28 11:24:13 81° 223° (SW) 11:27:38 435.350 FM
DELFI C3 18 Oct 11:22:57 11:25:58 21° 292° (WNW) 11:29:00 145.870
EO-79 18 Oct 11:25:18 11:29:19 42° 72° (ENE) 11:33:23 145.935-145.965
POLYITAN 1 18 Oct 11:29:14 11:33:20 47° 72° (ENE) 11:37:28 437.675
RS-15 18 Oct 11:48:25 11:59:02 42° 253° (WSW) 12:09:11 29.354- 29.394
QB50P2 18 Oct 11:49:08 11:53:24 89° 86° (E) 11:57:43 145.880/145.840
NANOSAT C BR1 18 Oct 11:54:55 11:59:10 83° 76° (ENE) 12:03:27 145.865
M-CUBED/EXP-1 PRIME 18 Oct 12:05:03 12:06:15 12° 60° (ENE) 12:07:26 437.505
LO-87 18 Oct 12:06:15 12:09:54 84° 283° (WNW) 12:13:31 145.935 - 145.965
DUCHIFAT 1 18 Oct 12:07:04 12:11:18 83° 258° (WSW) 12:15:35 145.980
ESTCUBE 1 18 Oct 12:07:49 12:12:15 59° 101° (E) 12:16:40 437.505/2401.250
YUBILEINY 18 Oct 12:09:30 12:15:15 19° 299° (WNW) 12:21:02 435.215
VELOX 1 18 Oct 12:11:30 12:11:47 10° 89° (E) 12:12:02 145.980
nSIGHT-1 18 Oct 12:18:10 12:21:01 29° 336° (NNW) 12:23:53 .
Oscar 19 18 Oct 12:19:08 12:22:59 22° 64° (ENE) 12:26:51 437.125/150
BEESAT 3 18 Oct 12:22:50 12:26:27 34° 116° (ESE) 12:30:07 437.485
BUGSAT 1 18 Oct 12:24:41 12:28:33 38° 71° (ENE) 12:32:29 437.445
Gurwin Techsat 1B 18 Oct 12:31:38 12:35:26 20° 62° (ENE) 12:39:14 435.225
ISS 18 Oct 12:45:16 12:47:58 23° 340° (NNW) 12:50:40 437.550
EO-79 18 Oct 13:02:33 13:05:16 17° 268° (W) 13:08:01 145.935-145.965
POLYITAN 1 18 Oct 13:06:52 13:09:21 15° 268° (W) 13:11:51 437.675
SPROUT 18 Oct 13:17:30 13:21:49 86° 103° (ESE) 13:26:06 437.525
DX 1 18 Oct 13:23:11 13:25:49 16° 92° (E) 13:28:27 434.975-435.025
50 SAT 18 Oct 13:24:04 13:26:07 15° 94° (E) 13:28:10 437.505
M-CUBED/EXP-1 PRIME 18 Oct 13:37:06 13:40:23 41° 255° (WSW) 13:43:33 437.505
BEESAT 2 18 Oct 13:37:26 13:41:24 66° 120° (ESE) 13:45:26 435.950
AO-85 18 Oct 13:40:03 13:43:45 44° 117° (ESE) 13:47:31 145.980
VELOX 1 18 Oct 13:44:16 13:48:42 75° 286° (WNW) 13:53:07 145.980
ESTCUBE 1 18 Oct 13:46:08 13:48:33 14° 297° (WNW) 13:50:57 437.505/2401.250
UKube-1 18 Oct 13:51:43 13:54:55 20° 94° (E) 13:58:06 .
nSIGHT-1 18 Oct 13:56:14 13:58:04 14° 356° (N) 13:59:55 .
Oscar 19 18 Oct 13:56:57 14:01:57 49° 260° (W) 14:06:58 437.125/150
BEESAT 3 18 Oct 14:00:44 14:04:03 24° 313° (NW) 14:07:23 437.485
BUGSAT 1 18 Oct 14:01:13 14:04:03 18° 267° (W) 14:06:55 437.445
Gurwin Techsat 1B 18 Oct 14:09:45 14:14:56 55° 259° (W) 14:20:10 435.225
